MDT,Max TemperatureF,Mean TemperatureF,Min TemperatureF,Max Dew PointF,MeanDew PointF,Min DewpointF,Max Humidity, Mean Humidity, Min Humidity, Max Sea Level PressureIn, Mean Sea Level PressureIn, Min Sea Level PressureIn, Max VisibilityMiles, Mean VisibilityMiles, Min VisibilityMiles, Max Wind SpeedMPH, Mean Wind SpeedMPH, Max Gust SpeedMPH,PrecipitationIn, CloudCover, Events, WindDirDegrees
2012-10-1,69,53,37,45,37,30,93,58,28,30.30,30.11,29.75,10,10,9,14,8,20,0.03,0,,200
2012-10-2,71,60,48,39,35,30,66,42,27,29.96,29.76,29.65,10,10,9,16,11,25,0.00,1,,305
2012-10-3,48,42,37,37,36,34,93,83,62,30.41,30.16,29.92,10,10,5,20,13,33,0.71,8,,1
2012-10-4,42,35,28,34,28,21,93,76,49,30.44,30.42,30.40,10,10,10,16,9,,0.01,4,,317
2012-10-5,42,33,24,25,21,18,86,63,36,30.45,30.42,30.40,10,10,10,13,7,18,0.00,3,,335
2012-10-6,48,32,17,28,20,12,93,63,34,30.45,30.30,30.07,10,10,10,16,5,21,0.00,0,,223
2012-10-7,57,42,26,37,30,21,93,61,38,30.07,29.89,29.66,10,10,10,15,7,22,0.00,3,,245
2012-10-8,57,47,37,43,34,25,87,60,38,29.94,29.80,29.65,10,10,9,24,15,31,0.00,5,,307
2012-10-9,46,37,28,28,24,18,86,60,32,30.10,30.05,29.94,10,10,10,16,11,21,0.00,5,,305
2012-10-10,60,45,30,37,31,25,86,66,36,30.13,29.95,29.82,10,10,10,18,6,23,0.00,7,,315
2012-10-11,41,37,33,32,27,21,87,71,45,30.37,30.28,30.15,10,9,4,15,8,22,0.00,7,,31
2012-10-12,64,47,30,37,32,25,86,64,37,30.16,29.85,29.65,10,10,6,16,9,20,0.00,0,,194
2012-10-13,60,46,33,37,36,28,93,65,42,29.96,29.81,29.64,10,10,10,15,4,,0.00,2,,294
2012-10-14,68,50,33,41,37,30,100,60,30,30.00,29.94,29.82,10,10,10,18,5,23,0.00,2,,271
2012-10-15,71,60,48,48,41,37,87,54,31,29.81,29.70,29.66,10,10,10,18,10,24,0.00,4,,232
2012-10-16,57,50,42,52,44,37,94,79,58,29.66,29.43,29.25,10,10,10,33,10,43,0.14,3,,221
2012-10-17,53,48,42,41,29,21,87,54,28,29.78,29.57,29.27,10,9,2,39,29,51,0.16,5,,300
2012-10-18,46,38,28,34,30,27,93,69,53,30.09,29.99,29.78,10,10,10,32,23,41,0.00,5,,317
2012-10-19,55,38,21,36,28,19,93,74,38,30.06,29.80,29.57,10,10,5,13,3,,0.00,0,,193
2012-10-20,69,53,37,43,36,27,87,59,31,29.73,29.56,29.50,10,10,10,16,7,26,0.00,3,,236
2012-10-21,51,44,37,32,30,25,75,56,35,30.05,29.95,29.74,10,10,10,13,6,,0.00,5,,8
2012-10-22,44,40,37,37,35,30,93,81,57,30.06,29.95,29.73,10,9,4,14,8,21,0.51,8,,100
2012-10-23,44,36,28,39,32,21,93,76,57,29.92,29.77,29.65,10,9,4,18,7,24,0.37,6,,293
2012-10-24,37,32,26,25,22,18,86,70,56,30.16,30.06,29.97,10,10,10,18,10,23,0.00,6,,276
2012-10-25,33,32,30,23,21,19,75,65,56,30.37,30.26,30.17,10,10,10,23,15,29,0.00,8,,304
2012-10-26,33,28,24,23,16,12,86,60,41,30.41,30.33,30.24,10,9,2,18,12,23,0.00,7,,299
2012-10-27,32,28,24,25,22,19,86,76,69,30.25,30.22,30.20,10,9,2,10,6,,0.00,8,,62
2012-10-28,37,32,28,32,27,21,93,83,74,30.21,30.04,29.95,10,8,2,17,7,21,0.01,8,,125
2012-10-29,51,40,28,43,35,27,100,86,62,30.00,29.96,29.93,10,6,1,7,3,,0.02,4,,8
2012-10-30,62,48,33,48,39,32,100,81,45,30.00,29.97,29.93,10,7,0,12,5,,0.03,2,,213
2012-10-31,44,37,30,39,33,27,93,83,75,30.16,30.08,29.93,10,10,10,17,7,21,0.00,6,,9